Flag for Germany Weather past 2 weeks in Warburg, North Rhine-Westphalia, Germany

52 °F


Feels Like: 47 °F
Forecast: 32 / 48 °F
Wind: 14 mph from East

Location: Kassel / Calden

Current Time: Oct 10, 2015 at 1:27:24 PM

Latest Report: Oct 10, 2015 at 12:50 PM

Visibility: 10 mi

Pressure: 30.12 "Hg

Humidity: 58%

Dew point: 37 °F

Location of WarburgLocation

Historic Weather in Warburg — Graph


Warburg temperature yesterday

Maximum temperature yesterday: 57 °F (at 1:50 PM)
Minimum temperature yesterday: 52 °F (at 6:20 AM)
Average temperature yesterday: 53 °F

Past Weeks' High & Low Weather Summary

High64 °F (Oct 2, 4:20 PM)100% (Sep 26, 5:50 AM)30.66 "Hg (Sep 26, 5:50 AM)
Low30 °F (Oct 2, 6:50 AM)37% (Oct 2, 4:20 PM)29.68 "Hg (Oct 6, 7:20 AM)
Average54 °F81%30.22 "Hg
* Reported Sep 25 11:20 AM — Oct 10 11:50 AM, Warburg, Weather by CustomWeather, © 2015

Note: Actual official high and low records may vary slightly from our data, if they occured in-between our weather recording intervals... More about our weather records


Warburg weather history for previous 24 hours

Time TempWeatherWind HumidityBarometerVisibility
11:50 AM
Sat, Oct 10
52 °FSunny.14 mph62%30.15 "Hg10 mi
11:20 AM50 °FSunny.10 mph71%30.15 "Hg10 mi
10:50 AM48 °FSunny.7 mph76%30.15 "Hg10 mi
10:20 AM46 °FSunny.7 mph87%30.15 "Hg10 mi
9:50 AM46 °FSunny.6 mph82%30.15 "Hg10 mi
9:20 AM46 °FSunny.7 mph82%30.15 "Hg10 mi
8:50 AM45 °FSunny.2 mph93%30.15 "Hg10 mi
8:20 AM43 °FClear.6 mph100%30.15 "Hg4 mi
7:50 AM45 °FClear.7 mph100%30.15 "Hg4 mi
7:20 AM45 °FPassing clouds.6 mph100%30.15 "Hg4 mi
6:50 AM46 °FFog.6 mph100%30.15 "Hg3 mi
6:20 AM46 °FFog.8 mph100%30.15 "Hg2 mi
5:50 AM48 °FFog.8 mph100%30.15 "Hg2 mi
9:50 PM
Fri, Oct 9
52 °FLow clouds.7 mph100%30.15 "Hg6 mi
9:20 PM52 °FLow clouds.7 mph100%30.15 "Hg6 mi
8:50 PM52 °FLow clouds.7 mph100%30.15 "Hg6 mi
8:20 PM52 °FLow clouds.6 mph100%30.15 "Hg6 mi
7:50 PM54 °FMostly cloudy.7 mph100%30.15 "Hg6 mi
7:20 PM54 °FOvercast.8 mph100%30.15 "Hg6 mi
6:50 PM54 °FLight rain. Mostly cloudy.8 mph100%30.15 "Hg6 mi
6:20 PM54 °FLight rain. Broken clouds.8 mph100%30.15 "Hg5 mi
5:50 PM54 °FRain. Cloudy.9 mph100%30.12 "Hg1 mi
5:20 PM55 °FLight rain. Cloudy.9 mph100%30.12 "Hg6 mi
4:20 PM55 °FBroken clouds.10 mph100%30.12 "HgN/A
3:50 PM55 °FPartly sunny.9 mph100%30.12 "Hg6 mi
3:20 PM55 °FLight rain. Partly sunny.8 mph100%30.12 "Hg5 mi
2:50 PM55 °FRain. Partly sunny.10 mph100%30.12 "Hg6 mi
2:20 PM57 °FBroken clouds.5 mph100%30.12 "HgN/A
1:50 PM57 °FMore clouds than sun.3 mph100%30.15 "HgN/A
1:20 PM55 °FMore clouds than sun.3 mph100%30.15 "HgN/A
Weather by CustomWeather, © 2015

See weather overviewHow to use our weather pages